New Paris, IN

6:46 PM EDT on July 23, 2016 (GMT -0400)
Goshen Municipal

Weather History for KGSH - December, 2012

Change the Weather History Date:

Thursday, December 20, 2012

  Actual Average Record
Temperature  
Mean Temperature 42 °F -  
Max Temperature 51 °F 34 °F 58 °F (1949)
Min Temperature 33 °F 21 °F -7 °F (1981)
Degree Days  
Heating Degree Days 23    
Moisture  
Dew Point 37 °F    
Average Humidity 85    
Maximum Humidity 93    
Minimum Humidity 70    
Precipitation  
Precipitation 0.86 in - - ()
Sea Level Pressure  
Sea Level Pressure 29.34 in    
Wind  
Wind Speed 18 mph (SSE)    
Max Wind Speed 28 mph    
Max Gust Speed 39 mph    
Visibility 5 miles    
Events Rain , Snow    
Averages and records for this station are not official NWS values.
T = Trace of Precipitation, MM = Missing Value Source: NWS Daily Summary

Daily Weather History Graph

Daily Weather History Graph

Search for Another Location

Airport or City:

Trip Planner

Search our weather history database for the weather conditions in past years. The results will help you decide how hot, cold, wet, or windy it might be!

Date:

Astronomy

Dec. 20, 2012 Rise Set
Actual Time 8:06 AM EST 5:16 PM EST
Civil Twilight 7:34 AM EST 5:47 PM EST
Nautical Twilight 6:59 AM EST 6:22 PM EST
Astronomical Twilight 6:25 AM EST 6:56 PM EST
Moon 12:37 PM EST (12/20) 12:48 AM EST (12/20)
Length of Visible Light 10h 13m
Length of Day
9h 10m
First Quarter, 55% of the Moon is Illuminated
Dec 20
First Quarter
Dec 28
Full
Jan 4
Last Quarter
Jan 11
New
Jan 18
First Quarter

Hourly Weather History & Observations

Time (EST) Temp. Windchill Dew Point Humidity Pressure Visibility Wind Dir Wind Speed Gust Speed Precip Events Conditions
12:53 AM 39.9 °F 31.8 °F 34.0 °F 79% 29.94 in 6.0 mi ESE 15.0 mph - N/A   Haze
1:53 AM 39.9 °F 31.4 °F 34.0 °F 79% 29.85 in 4.0 mi ESE 16.1 mph 27.6 mph 0.01 in Rain Light Rain
2:53 AM 41.0 °F 31.6 °F 35.1 °F 79% 29.76 in 5.0 mi East 20.7 mph 32.2 mph 0.00 in   Haze
3:44 AM 39.2 °F 30.2 °F 35.6 °F 87% 29.77 in 2.5 mi ESE 17.3 mph 23.0 mph 0.04 in Rain Light Rain
3:51 AM 39.2 °F 31.6 °F 35.6 °F 87% 29.77 in 3.0 mi ESE 12.7 mph 24.2 mph 0.06 in Rain Rain
3:53 AM 39.9 °F 32.5 °F 36.0 °F 86% 29.78 in 3.0 mi ESE 12.7 mph 24.2 mph 0.06 in Rain Rain
4:53 AM 39.9 °F 30.5 °F 36.0 °F 86% 29.72 in 4.0 mi ESE 19.6 mph 26.5 mph 0.06 in Rain Light Rain
5:53 AM 41.0 °F 31.4 °F 37.0 °F 86% 29.66 in 3.0 mi ESE 21.9 mph 31.1 mph 0.03 in Rain Light Rain
6:11 AM 41.0 °F 32.5 °F 37.4 °F 87% 29.62 in 2.5 mi ESE 17.3 mph 28.8 mph 0.05 in Rain Rain
6:24 AM 41.0 °F 31.9 °F 37.4 °F 87% 29.60 in 3.0 mi ESE 19.6 mph 27.6 mph 0.08 in Rain Light Rain
7:02 AM 41.0 °F 31.9 °F 37.4 °F 87% 29.54 in 2.5 mi ESE 19.6 mph 32.2 mph 0.04 in Rain Rain
7:53 AM 39.9 °F 30.5 °F 37.0 °F 89% 29.51 in 2.0 mi ESE 19.6 mph 32.2 mph 0.21 in Rain Rain
8:25 AM 41.0 °F 31.4 °F 37.4 °F 87% 29.48 in 3.0 mi ESE 21.9 mph 29.9 mph 0.07 in Rain Rain
8:32 AM 41.0 °F 31.4 °F 37.4 °F 87% 29.47 in 2.5 mi ESE 21.9 mph 29.9 mph 0.09 in Rain Rain
8:41 AM 41.0 °F 30.9 °F 37.4 °F 87% 29.48 in 3.0 mi ESE 24.2 mph 31.1 mph 0.11 in Rain Rain
8:47 AM 41.0 °F 31.4 °F 37.4 °F 87% 29.49 in 2.5 mi ESE 21.9 mph 34.5 mph 0.14 in Rain Rain
8:53 AM 41.0 °F 30.9 °F 37.9 °F 89% 29.49 in 2.0 mi ESE 24.2 mph 31.1 mph 0.16 in Rain Rain
9:43 AM 41.0 °F 30.9 °F 37.4 °F 87% 29.45 in 3.0 mi ESE 24.2 mph 31.1 mph 0.06 in Rain Light Rain
9:53 AM 41.0 °F 31.9 °F 37.0 °F 86% 29.47 in 2.5 mi ESE 19.6 mph 29.9 mph 0.07 in Rain Light Rain
10:22 AM 41.0 °F 30.2 °F 37.4 °F 87% 29.36 in 3.0 mi ESE 27.6 mph 39.1 mph 0.03 in Rain Light Rain
10:48 AM 42.8 °F 32.9 °F 37.4 °F 81% 29.35 in 5.0 mi ESE 26.5 mph 36.8 mph 0.03 in   Overcast
10:53 AM 42.1 °F 32.3 °F 39.0 °F 89% 29.36 in 5.0 mi ESE 24.2 mph 34.5 mph 0.03 in   Overcast
11:53 AM 45.0 °F 36.0 °F 41.0 °F 86% 29.26 in 7.0 mi SE 25.3 mph 35.7 mph 0.00 in   Overcast
12:53 PM 46.9 °F - 43.0 °F 86% 29.24 in 9.0 mi SSE 19.6 mph 28.8 mph N/A   Overcast
1:30 PM 48.2 °F - 44.6 °F 87% 29.18 in 10.0 mi SE 17.3 mph 24.2 mph N/A   Overcast
1:53 PM 50.0 °F - 46.0 °F 86% 29.17 in 7.0 mi SE 19.6 mph 27.6 mph 0.00 in Rain Light Rain
2:31 PM 48.2 °F - 46.4 °F 93% 29.14 in 2.5 mi SE 13.8 mph - 0.02 in Rain Rain
2:35 PM 48.2 °F - 46.4 °F 93% 29.13 in 1.8 mi SE 11.5 mph 20.7 mph 0.04 in Rain Rain
2:43 PM 50.0 °F - 46.4 °F 87% 29.12 in 3.0 mi SE 13.8 mph 23.0 mph 0.05 in Rain Light Rain
2:53 PM 50.0 °F - 46.0 °F 86% 29.12 in 8.0 mi SE 16.1 mph 24.2 mph 0.05 in Rain Light Rain
3:00 PM 51.8 °F - 46.4 °F 82% 29.11 in 10.0 mi SSE 17.3 mph 25.3 mph 0.00 in   Overcast
3:38 PM 50.0 °F - 46.4 °F 87% 29.13 in 1.5 mi SW 27.6 mph 33.4 mph 0.10 in Rain Rain
3:43 PM 46.4 °F 38.7 °F 42.8 °F 87% 29.12 in 1.2 mi SW 20.7 mph 33.4 mph 0.12 in Rain Light Rain
3:49 PM 44.6 °F 36.9 °F 42.8 °F 93% 29.13 in 4.0 mi SW 18.4 mph 27.6 mph 0.13 in Rain Light Rain
3:53 PM 45.0 °F 37.6 °F 41.0 °F 86% 29.13 in 5.0 mi SW 17.3 mph 27.6 mph 0.14 in Rain Light Rain
4:50 PM 46.4 °F 40.1 °F 41.0 °F 81% 29.12 in 10.0 mi SSW 15.0 mph 26.5 mph 0.00 in   Overcast
4:53 PM 46.0 °F 39.9 °F 41.0 °F 83% 29.13 in 10.0 mi SW 13.8 mph 26.5 mph 0.00 in   Overcast
5:31 PM 42.8 °F 34.0 °F 35.6 °F 76% 29.15 in 10.0 mi SW 20.7 mph 33.4 mph 0.02 in Rain Light Rain
5:53 PM 43.0 °F 34.0 °F 36.0 °F 76% 29.16 in 10.0 mi SSW 21.9 mph 29.9 mph 0.03 in Rain Light Rain
6:53 PM 39.9 °F 31.4 °F 30.9 °F 70% 29.16 in 10.0 mi SSW 16.1 mph - 0.00 in   Overcast
7:27 PM 39.2 °F 32.0 °F 30.2 °F 70% 29.15 in 10.0 mi South 11.5 mph 23.0 mph N/A   Overcast
7:53 PM 37.0 °F 27.4 °F 30.0 °F 76% 29.17 in 10.0 mi South 17.3 mph 31.1 mph N/A   Overcast
8:15 PM 35.6 °F 24.5 °F 28.4 °F 75% 29.17 in 10.0 mi SSW 20.7 mph - N/A   Overcast
8:24 PM 35.6 °F 25.2 °F 28.4 °F 75% 29.17 in 10.0 mi SSW 18.4 mph 28.8 mph N/A   Overcast
8:53 PM 35.1 °F 25.5 °F 30.0 °F 82% 29.18 in 10.0 mi South 15.0 mph - N/A   Overcast
9:27 PM 35.6 °F 28.0 °F 30.2 °F 81% 29.16 in 10.0 mi SSW 10.4 mph - N/A   Overcast
9:53 PM 34.0 °F 26.6 °F 30.9 °F 89% 29.18 in 3.0 mi SSW 9.2 mph - 0.00 in   Overcast
10:20 PM 33.8 °F 25.8 °F 32.0 °F 93% 29.16 in 10.0 mi SSW 10.4 mph - N/A   Overcast
10:53 PM 34.0 °F 24.6 °F 30.9 °F 89% 29.17 in 2.5 mi SW 13.8 mph - 0.00 in Snow Light Snow
11:27 PM 35.6 °F 26.6 °F 32.0 °F 87% 29.16 in 4.0 mi WSW 13.8 mph - 0.00 in   Overcast
11:53 PM 36.0 °F 25.6 °F 33.1 °F 89% 29.17 in 6.0 mi WSW 18.4 mph 25.3 mph 0.01 in Rain Light Rain